"Pseudo-MPEC" for C0MN8Y5

Created 2023 Nov 24 22:22:03 UT using Find_Orb

Click here for an explanation of pseudo-MPECs

 
 Astrometry: 
     C0MN8Y5* C2023 11 15.18814200 29 24.911+07 45 42.37   ~BF5M 22.95GVNEOCPV00
     C0MN8Y5  C2023 11 15.19366600 29 23.528+07 46 18.62   ~BF5M 22.91GVNEOCPV00
     C0MN8Y5  C2023 11 15.19919400 29 22.182+07 46 54.59   ~BF5M       VNEOCPV00
     C0MN8Y5  C2023 11 15.20469800 29 20.828+07 47 30.80   ~BF5M 21.61GVNEOCPV00
     C0MN8Y5  C2023 11 15.23128000 29 14.023+07 50 22.97   ~BF6M 21.4 GVNEOCPH01
     C0MN8Y5  C2023 11 15.23491900 29 13.130+07 50 46.73   ~BF6M 21.9 GVNEOCPH01
     C0MN8Y5  C2023 11 15.24587000 29 10.448+07 51 58.51   ~BF6M 22.0 GVNEOCPH01
     C0MN8Y5  C2023 11 15.25297800 29 08.721+07 52 45.18   ~BF6M 21.5 GVNEOCPH01
     C0MN8Y5 mC2023 11 15.26658000 29 05.586+07 54 16.49   ~BF6q 22.01GVNEOCPV00
     C0MN8Y5 mC2023 11 15.26985100 29 04.794+07 54 37.94   ~BF6q 21.74GVNEOCPV00
     C0MN8Y5 mC2023 11 15.27336500 29 03.937+07 55 01.20   ~BF6q 21.78GVNEOCPV00
     C0MN8Y5 mC2023 11 15.27660300 29 03.149+07 55 22.51   ~BF6q 21.99GVNEOCPV00

Station data:
(H01) Magdalena Ridge Observatory, Socorro  (N33.984833 W107.189333)  US/New
   Mexico.  Observers W. H. Ryan, E. V. Ryan. Measurer W. H. Ryan. 2.4-m
   f/8.9 reflector + CCD.
(V00) Kitt Peak-Bok  (N31.963125 W111.600190)  US/Arizona.  Observers T. A.
   Pruyne, B. M. Africano, E. J. Christensen, G. A. Farneth, D. C. Fuls, A.
   R. Gibbs, A. D. Grauer, H. Gröller, J. A. Johnson, R. A. Kowalski, S. M.
   Larson, G. J. Leonard, D. Rankin, R. L. Seaman, F. C. Shelly, K. W.
   Wierzchoś. 2.25-m reflector + 4x4K mosaic CCD.

Orbital elements:  C0MN8Y5
   Perihelion 2023 Dec 18.90060 +/- 69.6 TT = 21:36:52 (JD 2460297.40060)
Epoch 2023 Nov 15.0 TT = JDT 2460263.5   Earth MOID: 0.1084      AutoNEOCP
M 348.39682414 +/- 60               (J2000 ecliptic)
n   0.34227048 +/- 0.317            Peri.   38.54547 +/- 120
a   2.02405860 +/- 1.25             Node    44.69147 +/- 1.0
e   0.4857798 +/- 0.235             Incl.   16.84709 +/- 6
P   2.88                   H 24.52  G  0.15   U 12.0  SR
q 1.04081169 +/- 0.243    Q 3.00730551 +/- 3.78
From 12 observations 2023 Nov. 15 (2.1 hr); mean residual 0".23
Residuals in arcseconds: 
231115 V00  .18+  .20+    231115 H01  .38-  .19-    231115 V00  .08+  .01-    
231115 V00  .09-  .21+    231115 H01  .38-  .28-    231115 V00  .19+  .00     
231115 V00  .21+  .08-    231115 H01  .37-  .27-    231115 V00  .21+  .23+    
231115 V00  .30+  .03+    231115 H01  .21-  .18-    231115 V00  .25+  .32+    

Ephemerides (geocentric):
Date (UTC) HH   RA             Dec           delta  r     elong  mag " sig PA
---- --------  ------------   ------------  ------ ------ -----  --- --------
2023 11 24 22  23 50 52.563   +26 58 06.08  .15160 1.0778 123.2 22.4 324'  28
2023 11 24 23  23 50 42.266   +27 03 08.74  .15161 1.0777 123.2 22.4 327'  28
2023 11 25 00  23 50 31.966   +27 08 11.32  .15163 1.0776 123.1 22.4 330'  28
2023 11 25 01  23 50 21.662   +27 13 13.80  .15165 1.0775 123.1 22.5 333'  28
2023 11 25 02  23 50 11.355   +27 18 16.20  .15166 1.0774 123.0 22.5 335'  28
2023 11 25 03  23 50 01.045   +27 23 18.50  .15168 1.0772 122.9 22.5 338'  28
2023 11 25 04  23 49 50.732   +27 28 20.71  .15170 1.0771 122.9 22.5 341'  28
2023 11 25 05  23 49 40.416   +27 33 22.82  .15171 1.0770 122.8 22.5 343'  28
2023 11 25 06  23 49 30.096   +27 38 24.84  .15173 1.0769 122.7 22.5 346'  28
2023 11 25 07  23 49 19.773   +27 43 26.75  .15175 1.0767 122.7 22.5 349'  28
2023 11 25 08  23 49 09.447   +27 48 28.56  .15177 1.0766 122.6 22.5 352'  28
2023 11 25 09  23 48 59.117   +27 53 30.27  .15179 1.0765 122.6 22.5 354'  28
2023 11 25 10  23 48 48.784   +27 58 31.88  .15180 1.0764 122.5 22.5 357'  28
2023 11 25 11  23 48 38.448   +28 03 33.38  .15182 1.0762 122.4 22.5 360'  28
2023 11 25 12  23 48 28.109   +28 08 34.77  .15184 1.0761 122.4 22.5 363'  28
2023 11 25 13  23 48 17.766   +28 13 36.05  .15186 1.0760 122.3 22.5 366'  28
2023 11 25 14  23 48 07.421   +28 18 37.22  .15189 1.0759 122.3 22.5 368'  28
2023 11 25 15  23 47 57.072   +28 23 38.28  .15191 1.0758 122.2 22.5 371'  28
2023 11 25 16  23 47 46.719   +28 28 39.22  .15193 1.0756 122.1 22.5 374'  28
2023 11 25 17  23 47 36.364   +28 33 40.05  .15195 1.0755 122.1 22.5 377'  28
2023 11 25 18  23 47 26.005   +28 38 40.76  .15197 1.0754 122.0 22.5 380'  28
2023 11 25 19  23 47 15.643   +28 43 41.34  .15200 1.0753 121.9 22.5 383'  28
2023 11 25 20  23 47 05.277   +28 48 41.81  .15202 1.0751 121.9 22.5 386'  28
2023 11 25 21  23 46 54.909   +28 53 42.15  .15204 1.0750 121.8 22.5 388'  28
2023 11 25 22  23 46 44.537   +28 58 42.37  .15207 1.0749 121.8 22.5 391'  28
2023 11 25 23  23 46 34.161   +29 03 42.46  .15209 1.0748 121.7 22.5 394'  28
2023 11 26 00  23 46 23.783   +29 08 42.43  .15212 1.0747 121.6 22.5 397'  28
2023 11 26 01  23 46 13.401   +29 13 42.26  .15214 1.0745 121.6 22.5 400'  28
2023 11 26 02  23 46 03.016   +29 18 41.97  .15217 1.0744 121.5 22.5 403'  28
2023 11 26 03  23 45 52.628   +29 23 41.54  .15219 1.0743 121.4 22.5 406'  28
2023 11 26 04  23 45 42.236   +29 28 40.97  .15222 1.0742 121.4 22.5 409'  28
2023 11 26 05  23 45 31.841   +29 33 40.27  .15224 1.0741 121.3 22.5 412'  28
2023 11 26 06  23 45 21.443   +29 38 39.43  .15227 1.0739 121.3 22.5 415'  28
2023 11 26 07  23 45 11.042   +29 43 38.46  .15230 1.0738 121.2 22.5 418'  28
2023 11 26 08  23 45 00.637   +29 48 37.34  .15233 1.0737 121.1 22.5 421'  29
2023 11 26 09  23 44 50.229   +29 53 36.08  .15235 1.0736 121.1 22.5 424'  29
2023 11 26 10  23 44 39.817   +29 58 34.67  .15238 1.0735 121.0 22.5 427'  29
2023 11 26 11  23 44 29.403   +30 03 33.12  .15241 1.0734 121.0 22.5 430'  29
2023 11 26 12  23 44 18.985   +30 08 31.42  .15244 1.0732 120.9 22.5 433'  29
2023 11 26 13  23 44 08.563   +30 13 29.58  .15247 1.0731 120.8 22.5 436'  29
2023 11 26 14  23 43 58.139   +30 18 27.58  .15250 1.0730 120.8 22.5 439'  29
2023 11 26 15  23 43 47.711   +30 23 25.43  .15253 1.0729 120.7 22.5 442'  29
2023 11 26 16  23 43 37.280   +30 28 23.13  .15256 1.0728 120.7 22.5 445'  29
2023 11 26 17  23 43 26.845   +30 33 20.67  .15259 1.0727 120.6 22.5 448'  29
2023 11 26 18  23 43 16.408   +30 38 18.06  .15263 1.0725 120.5 22.5 451'  29
2023 11 26 19  23 43 05.967   +30 43 15.28  .15266 1.0724 120.5 22.5 454'  29
2023 11 26 20  23 42 55.522   +30 48 12.35  .15269 1.0723 120.4 22.5 457'  29
2023 11 26 21  23 42 45.074   +30 53 09.26  .15272 1.0722 120.4 22.5 460'  29